[[{"header":{"parameterUnit":"m.s-1","parameterCategory":1,"la1":30.2991,"la2":30.254,"lo1":-89.0895,"lo2":-89.0444,"dy":0.0017,"dx":0.0017,"nx":28,"ny":28,"refTime":"2024-06-05T09:00:00:Z","depth":0,"parameterNumber":2,"parameterNumberName":"U-component_of_WINDS"},"data":[0,0,0,0,0,0,0,0,0,0,0,0,0,0,0,0,0,0,0,0,0,0,0,0,0,0,0,0,0,0,0,0,0,0,0,0,0,0,0,0,0,0,0,0,0,0,0,0,0,0,0,0,0,0,0,0,0,0,-1.4744,-1.4743,0,-1.4692,-1.4691,-1.4691,-1.47,-1.4701,-1.4702,-1.4703,-1.4644,-1.4641,-1.4639,0,0,0,0,0,0,0,0,0,0,0,0,0,-1.4847,-1.4845,-1.4744,-1.4743,-1.4743,-1.4692,-1.4691,-1.469,-1.47,-1.4701,-1.4702,-1.4703,-1.4644,-1.4641,-1.4638,0,0,0,0,0,0,0,0,0,0,0,0,0,-1.4799,-1.4844,-1.4744,-1.4741,-1.4741,-1.4692,-1.4691,-1.469,-1.47,-1.4701,-1.4703,-1.4704,-1.4645,-1.4642,-1.4638,-1.4587,0,0,-1.4627,-1.4625,0,0,0,0,0,0,0,0,-1.4802,-1.4795,-1.4743,-1.4742,-1.4741,-1.4704,-1.4706,-1.4655,-1.4699,-1.4715,-1.4703,-1.4705,-1.4662,-1.4657,-1.4644,-1.4584,-1.4581,-1.4626,-1.4624,-1.4623,-1.4622,0,0,0,0,0,0,0,-1.4805,-1.4797,-1.4723,-1.4742,-1.4741,-1.4741,-1.4736,-1.4696,-1.4681,-1.4714,-1.4714,-1.4708,-1.4662,-1.4648,-1.4643,-1.4581,-1.4627,-1.4623,-1.4621,-1.462,-1.4475,-1.4474,0,0,0,0,0,0,-1.481,-1.48,-1.4725,-1.4722,-1.4776,-1.4738,-1.4732,-1.4714,-1.4682,-1.4678,-1.4707,-1.4709,-1.4653,-1.4647,-1.4641,-1.4578,-1.4623,-1.4619,-1.4617,-1.4477,-1.4475,-1.4473,0,0,0,0,0,0,-1.4812,-1.4803,-1.4727,-1.4761,-1.4751,-1.4735,-1.4714,-1.4712,-1.4698,-1.4677,-1.4674,-1.4696,-1.4654,-1.4646,-1.46,-1.4576,-1.4618,-1.4614,-1.4479,-1.4476,-1.4474,-1.4452,0,0,0,0,0,0,-1.4815,-1.4804,-1.4785,-1.4761,-1.475,-1.4689,-1.4713,-1.471,-1.4693,-1.4694,-1.4665,-1.4661,-1.4655,-1.4606,-1.4597,-1.4571,-1.4611,-1.4481,-1.4478,-1.4475,-1.4454,-1.4449,-1.4444,0,0,0,0,0,-1.4819,-1.478,-1.4784,-1.4775,-1.4726,-1.4688,-1.4681,-1.4675,-1.4691,-1.4671,-1.4657,-1.4662,-1.4581,-1.4601,-1.4591,-1.4564,-1.4482,-1.4478,-1.4475,-1.4457,-1.445,-1.4444,0,0,0,0,0,0,-1.48,-1.4777,-1.4781,-1.4734,-1.4713,-1.4689,-1.4664,-1.4668,-1.4641,-1.4644,-1.4636,-1.463,-1.4583,-1.4569,-1.4593,-1.4512,-1.4533,-1.4527,-1.4523,-1.4516,-1.4511,-1.4514,-1.4608,0,0,0,0,0,-1.4791,-1.4763,-1.4743,-1.4703,-1.4693,-1.468,-1.4663,-1.4661,-1.4638,-1.4629,-1.4612,-1.4588,-1.4557,-1.4536,-1.4506,-1.4453,-1.4446,-1.443,-1.4425,-1.442,-1.4414,-1.4384,-1.4376,-1.4461,-1.4461,-1.4461,0,0,-1.477,-1.4754,-1.4737,-1.4699,-1.4683,-1.4652,-1.4673,-1.464,-1.4616,-1.4623,-1.4579,-1.4566,-1.4539,-1.4489,-1.4467,-1.4476,-1.439,-1.4416,-1.4412,-1.4409,-1.438,-1.4372,-1.4365,-1.4459,-1.4459,-1.4459,0,0,-1.4717,-1.4703,-1.4668,-1.4652,-1.4627,-1.462,-1.4611,-1.4587,-1.4579,-1.4536,-1.454,-1.4512,-1.4459,-1.4439,-1.4422,-1.4363,-1.4366,-1.4353,-1.4324,-1.4295,-1.4289,-1.4283,-1.426,-1.4252,-1.4348,-1.4348,-1.4348,0,-1.4694,-1.465,-1.4649,-1.4615,-1.4598,-1.4606,-1.4569,-1.4552,-1.4518,-1.4505,-1.4518,-1.4451,-1.4433,-1.4379,-1.4365,-1.4351,-1.434,-1.4355,-1.429,-1.4284,-1.4278,-1.4256,-1.4248,-1.4347,-1.4347,-1.4347,-1.4347,0,-1.4623,-1.4592,-1.4566,-1.4536,-1.4516,-1.4481,-1.4472,-1.4452,-1.4452,-1.4442,-1.4397,-1.4377,-1.4343,-1.433,-1.4329,-1.4275,-1.4282,-1.4292,-1.4312,-1.4269,-1.4248,-1.424,-1.4344,-1.4345,-1.4345,-1.4346,0,0,-1.4554,-1.4525,-1.4515,-1.4501,-1.4475,-1.445,-1.4415,-1.4384,-1.4366,-1.4343,-1.4312,-1.4268,-1.4277,-1.4258,-1.4255,-1.423,-1.4183,-1.4243,-1.4242,-1.4231,-1.412,-1.4111,-1.4101,-1.4186,-1.4184,-1.4183,-1.4122,0,-1.4498,-1.4438,-1.4435,-1.438,-1.4351,-1.4358,-1.4327,-1.4307,-1.4298,-1.427,-1.4259,-1.4227,-1.4244,-1.4232,-1.4208,-1.4194,-1.416,-1.4198,-1.4155,-1.4153,-1.4159,-1.4091,-1.4081,-1.4024,-1.4114,-1.4113,-1.4112,0,-1.4423,-1.4399,-1.4341,-1.432,-1.4307,-1.428,-1.4251,-1.4226,-1.4203,-1.4198,-1.4177,-1.4178,-1.414,-1.4164,-1.4111,-1.4137,-1.412,-1.411,-1.4108,-1.4102,-1.4128,-1.408,-1.4006,-1.3996,-1.4099,-1.41,-1.4101,0,-1.4376,-1.433,-1.4289,-1.4277,-1.4252,-1.4232,-1.422,-1.4199,-1.418,-1.4155,-1.4142,-1.4112,-1.4095,-1.4071,-1.4063,-1.4081,-1.401,-1.4033,-1.4002,-1.4002,-1.3985,-1.3985,-1.3904,-1.3977,-1.3977,-1.3977,-1.3978,0,-1.4312,-1.4276,-1.4268,-1.4243,-1.4202,-1.42,-1.4159,-1.4148,-1.4129,-1.4101,-1.4105,-1.4078,-1.4071,-1.4041,-1.4035,-1.3991,-1.3984,-1.3977,-1.3975,-1.3975,-1.3976,-1.3962,-1.3964,-1.3975,-1.3976,-1.3976,-1.3976,0,-1.4252,-1.4246,-1.4202,-1.4182,-1.4176,-1.4147,-1.4129,-1.4103,-1.4096,-1.4059,-1.4051,-1.4037,-1.4003,-1.3994,-1.3953,-1.3949,-1.3897,-1.39,-1.3905,-1.3904,-1.3873,-1.3875,-1.3777,-1.3764,-1.3848,-1.3847,-1.3847,0,-1.421,-1.4183,-1.4161,-1.4143,-1.413,-1.4101,-1.4083,-1.408,-1.406,-1.4032,-1.401,-1.3977,-1.395,-1.3895,-1.3881,-1.3849,-1.385,-1.3818,-1.3845,-1.3846,-1.3847,-1.3848,-1.3844,-1.3812,-1.3811,-1.381,-1.381,0,-1.4136,-1.4135,-1.4109,-1.4082,-1.406,-1.4038,-1.4017,-1.4001,-1.3995,-1.3972,-1.3939,-1.3918,-1.3877,-1.3844,-1.3812,-1.3798,-1.3802,-1.3802,-1.3793,-1.3791,-1.3794,-1.379,-1.3888,-1.3803,-1.3804,-1.3805,-1.3805,-1.3805,-1.4082,-1.4058,-1.4039,-1.4009,-1.3994,-1.3974,-1.3949,-1.3939,-1.3912,-1.3879,-1.3879,-1.3842,-1.3819,-1.3778,-1.3762,-1.3732,-1.3741,-1.3728,-1.3724,-1.3721,-1.3717,-1.3802,-1.3726,-1.3726,-1.3726,-1.3727,-1.3727,0,-1.4007,-1.3995,-1.3968,-1.394,-1.3916,-1.3925,-1.3902,-1.3882,-1.385,-1.3829,-1.3804,-1.3764,-1.3732,-1.3716,-1.3684,-1.3663,-1.3664,-1.3654,-1.3654,-1.3651,-1.3712,-1.3722,-1.3654,-1.3654,-1.3654,-1.3654,-1.3654,-1.3654,-1.3964,-1.3923,-1.392,-1.387,-1.3859,-1.3824,-1.381,-1.3791,-1.3775,-1.3732,-1.3706,-1.3696,-1.3677,-1.3644,-1.3614,-1.361,-1.3597,-1.3586,-1.3582,-1.3639,-1.3646,-1.3653,-1.3663,-1.3584,-1.3584,-1.3524,-1.3523,-1.3523]},{"header":{"parameterUnit":"m.s-1","parameterCategory":1,"la1":30.2991,"la2":30.254,"lo1":-89.0895,"lo2":-89.0444,"dy":0.0017,"dx":0.0017,"nx":28,"ny":28,"refTime":"2024-06-05T09:00:00:Z","depth":0,"parameterNumber":3,"parameterNumberName":"V-component_of_WINDS"},"data":[0,0,0,0,0,0,0,0,0,0,0,0,0,0,0,0,0,0,0,0,0,0,0,0,0,0,0,0,0,0,0,0,0,0,0,0,0,0,0,0,0,0,0,0,0,0,0,0,0,0,0,0,0,0,0,0,0,0,5.8127,5.8128,0,5.8181,5.8182,5.8182,5.813,5.8128,5.8126,5.8124,5.8173,5.8176,5.818,0,0,0,0,0,0,0,0,0,0,0,0,0,5.7972,5.7976,5.8127,5.8128,5.8129,5.8181,5.8182,5.8182,5.813,5.8128,5.8125,5.8123,5.8172,5.8176,5.818,0,0,0,0,0,0,0,0,0,0,0,0,0,5.8034,5.7977,5.8127,5.8109,5.8108,5.8181,5.8182,5.8183,5.8131,5.8128,5.8125,5.8122,5.8171,5.8176,5.818,5.8272,0,0,5.8195,5.8197,0,0,0,0,0,0,0,0,5.8031,5.804,5.8111,5.811,5.8109,5.8146,5.8145,5.8212,5.8132,5.8122,5.8124,5.812,5.8166,5.8171,5.8188,5.8274,5.8276,5.8196,5.8199,5.8201,5.8202,0,0,0,0,0,0,0,5.8027,5.8037,5.8148,5.8112,5.8111,5.8096,5.8101,5.8158,5.816,5.8123,5.8119,5.8126,5.8165,5.8183,5.8189,5.8277,5.8196,5.82,5.8203,5.8205,5.8439,5.8443,0,0,0,0,0,0,5.8025,5.8034,5.8146,5.815,5.8062,5.8101,5.8107,5.8137,5.816,5.816,5.8129,5.8124,5.8177,5.8183,5.819,5.8298,5.8201,5.8205,5.8208,5.8436,5.844,5.8444,0,0,0,0,0,0,5.8022,5.8036,5.8144,5.8091,5.8104,5.8107,5.8141,5.814,5.8158,5.8165,5.8164,5.8148,5.8174,5.8183,5.8252,5.8299,5.8207,5.8212,5.8432,5.8437,5.8442,5.8516,0,0,0,0,0,0,5.8018,5.8035,5.8071,5.8092,5.8107,5.8208,5.8144,5.8143,5.8167,5.8161,5.8182,5.8183,5.8173,5.8245,5.8257,5.8304,5.8216,5.8428,5.8434,5.844,5.8509,5.8523,5.8534,0,0,0,0,0,5.8012,5.8089,5.8074,5.8087,5.8153,5.8211,5.8218,5.8207,5.8171,5.8207,5.8211,5.8182,5.8292,5.8253,5.8265,5.8315,5.8425,5.8433,5.844,5.8503,5.852,5.8534,0,0,0,0,0,0,5.8072,5.8091,5.8075,5.8161,5.8185,5.8202,5.8246,5.8225,5.8259,5.8251,5.8234,5.8239,5.8312,5.832,5.8276,5.8404,5.8352,5.8363,5.8396,5.8412,5.8424,5.8421,5.822,0,0,0,0,0,5.8095,5.8142,5.8156,5.823,5.8244,5.8243,5.8268,5.8257,5.828,5.829,5.8299,5.8321,5.836,5.8386,5.8423,5.851,5.8513,5.855,5.8562,5.8573,5.8582,5.8627,5.8644,5.8468,5.8468,5.8468,0,0,5.8143,5.816,5.8191,5.8243,5.826,5.8307,5.8252,5.8304,5.8339,5.8297,5.8363,5.837,5.8393,5.8471,5.8506,5.848,5.8631,5.8582,5.859,5.8594,5.8637,5.8653,5.8668,5.8473,5.8473,5.8472,0,0,5.8256,5.8274,5.8337,5.8356,5.8383,5.8382,5.8398,5.8418,5.8422,5.8488,5.8457,5.8496,5.8565,5.8583,5.8601,5.8718,5.8692,5.873,5.8796,5.8841,5.8854,5.8866,5.8908,5.8923,5.8739,5.874,5.874,0,5.8312,5.8384,5.8372,5.8427,5.845,5.8416,5.8479,5.8497,5.8534,5.855,5.8521,5.8606,5.8619,5.87,5.8729,5.8745,5.876,5.8728,5.8854,5.8866,5.8877,5.8916,5.8932,5.8744,5.8744,5.8743,5.8743,0,5.8451,5.8501,5.8549,5.8588,5.8616,5.8675,5.867,5.8699,5.8686,5.8687,5.8754,5.8768,5.8807,5.8825,5.8812,5.8905,5.8888,5.8857,5.8804,5.8898,5.8935,5.895,5.875,5.8749,5.8747,5.8746,0,0,5.8603,5.8635,5.8652,5.8669,5.8696,5.8734,5.8789,5.8829,5.8855,5.8881,5.8926,5.8985,5.8956,5.8976,5.8964,5.9003,5.9095,5.8967,5.8967,5.899,5.9196,5.922,5.9238,5.9078,5.908,5.9083,5.9194,0,5.8716,5.8817,5.8807,5.8901,5.8946,5.8914,5.8962,5.8983,5.8985,5.9022,5.9023,5.9065,5.9024,5.9036,5.9073,5.9076,5.9136,5.9068,5.9118,5.912,5.9114,5.9257,5.9282,5.9387,5.9209,5.9211,5.9213,0,5.8862,5.8896,5.8995,5.9014,5.9033,5.9077,5.9112,5.9148,5.917,5.9168,5.9191,5.9172,5.9226,5.9173,5.9246,5.92,5.9219,5.9224,5.9227,5.9232,5.9173,5.9265,5.942,5.9436,5.9235,5.9234,5.9232,0,5.8963,5.9032,5.91,5.9116,5.914,5.9172,5.9183,5.9202,5.9226,5.9255,5.927,5.9305,5.9324,5.9351,5.9341,5.9303,5.9416,5.9362,5.9415,5.9415,5.9441,5.9439,5.9601,5.9453,5.9453,5.9453,5.9452,0,5.9091,5.9153,5.9146,5.9188,5.9256,5.9242,5.9309,5.9315,5.9332,5.9373,5.9346,5.9385,5.9369,5.9406,5.9398,5.946,5.9468,5.9468,5.9465,5.947,5.9471,5.9483,5.9476,5.9457,5.9456,5.9455,5.9454,0,5.9215,5.9214,5.9286,5.9303,5.9309,5.9358,5.9371,5.9409,5.9409,5.9461,5.9472,5.9472,5.9514,5.9506,5.9552,5.9547,5.9624,5.9612,5.9617,5.9615,5.9668,5.9663,5.9844,5.9867,5.9705,5.9706,5.9707,0,5.9297,5.9344,5.9367,5.9393,5.9407,5.945,5.9475,5.9462,5.9489,5.9517,5.9551,5.9591,5.9622,5.9691,5.9693,5.9728,5.9716,5.9777,5.9721,5.9725,5.9717,5.9714,5.9719,5.9788,5.979,5.9792,5.9793,0,5.9443,5.9439,5.9477,5.9515,5.9545,5.9573,5.9599,5.9621,5.9611,5.9641,5.9685,5.971,5.9757,5.9796,5.9829,5.9837,5.9813,5.9811,5.9825,5.9831,5.9832,5.9832,5.9648,5.9807,5.9805,5.9804,5.9804,5.9803,5.9548,5.9588,5.961,5.9653,5.9671,5.9695,5.9732,5.9736,5.9773,5.9812,5.9802,5.9851,5.9869,5.991,5.9923,5.996,5.9937,5.9957,5.9963,5.9968,5.9974,5.9826,5.9965,5.9965,5.9965,5.9964,5.9964,0,5.9692,5.9704,5.9744,5.9781,5.9814,5.9789,5.9816,5.9844,5.9888,5.9909,5.994,5.999,6.0027,6.0033,6.0068,6.0096,6.0086,6.0106,6.0104,6.0106,5.9993,5.9977,6.0114,6.0114,6.0114,6.0114,6.0114,6.0114,5.9771,5.9837,5.9836,5.991,5.9921,5.9971,5.9988,6.0009,6.0025,6.0082,6.0114,6.0117,6.0131,6.0167,6.02,6.02,6.0214,6.0239,6.0235,6.0129,6.0114,6.01,6.0085,6.0242,6.0242,6.0345,6.0346,6.0346]}]]